When you browse on this site, cookies collect data to enhance your experience and personalize the content and advertising you see.
Visit our Privacy Policy to learn more. By continuing to use the site, you agree to this use of cookies and data.
  • In Austria
  • List of Countries
  • For 7 days
  • Water Temperature
  • Weather Map
  • News
  • Weather Widgets
  • user-avatar
    Login

    Hourly Weather Nocaima

    Today, 23 November, Saturday

    Time Temperature Precipitation Wind Pressure Humidity
    00:00 +20°C° 0.2 mm 1 mps 670 mmHg 93%
    01:00 +19°C° 0.2 mm 1 mps 669 mmHg 93%
    02:00 +19°C° 0 mm 1 mps 669 mmHg 93%
    03:00 +19°C° 0 mm 1 mps 669 mmHg 93%
    04:00 +19°C° 0 mm 1 mps 669 mmHg 92%
    05:00 +20°C° 0 mm 1 mps 669 mmHg 91%
    06:00 +20°C° 0 mm 1 mps 670 mmHg 89%
    07:00 +21°C° 0 mm 1 mps 671 mmHg 87%
    08:00 +23°C° 0 mm 1 mps 671 mmHg 79%
    09:00 +25°C° 0 mm 1 mps 671 mmHg 71%
    10:00 +28°C° 0 mm 1 mps 672 mmHg 63%
    11:00 +28°C° 0.3 mm 1 mps 671 mmHg 66%
    12:00 +28°C° 0.3 mm 1 mps 670 mmHg 68%
    13:00 +28°C° 0.3 mm 2 mps 669 mmHg 70%
    14:00 +27°C° 0.8 mm 1 mps 669 mmHg 77%
    15:00 +26°C° 0.8 mm 1 mps 668 mmHg 83%
    16:00 +25°C° 0.8 mm 1 mps 668 mmHg 90%
    17:00 +24°C° 0.8 mm 1 mps 668 mmHg 92%
    18:00 +23°C° 0.8 mm 1 mps 669 mmHg 94%
    19:00 +22°C° 0.8 mm 1 mps 669 mmHg 96%
    20:00 +21°C° 0.2 mm 1 mps 669 mmHg 96%
    21:00 +21°C° 0.2 mm 1 mps 670 mmHg 95%
    22:00 +20°C° 0.2 mm 1 mps 670 mmHg 95%
    23:00 +20°C° 0.1 mm 1 mps 670 mmHg 95%

    Tomorrow, 24 November, Sunday

    Time Temperature Precipitation Wind Pressure Humidity
    00:00 +20°C° 0.1 mm 1 mps 669 mmHg 95%
    01:00 +20°C° 0.1 mm 1 mps 669 mmHg 94%
    02:00 +20°C° 0 mm 1 mps 669 mmHg 94%
    03:00 +20°C° 0 mm 1 mps 669 mmHg 94%
    04:00 +20°C° 0 mm 1 mps 669 mmHg 94%
    05:00 +20°C° 0 mm 1 mps 669 mmHg 93%
    06:00 +19°C° 0 mm 0 mps 670 mmHg 91%
    07:00 +20°C° 0 mm 0 mps 671 mmHg 90%
    08:00 +23°C° 0.1 mm 1 mps 671 mmHg 83%
    09:00 +25°C° 0.1 mm 1 mps 671 mmHg 77%
    10:00 +27°C° 0.1 mm 1 mps 672 mmHg 70%
    11:00 +27°C° 0.7 mm 1 mps 671 mmHg 76%
    12:00 +26°C° 0.7 mm 1 mps 669 mmHg 81%
    13:00 +26°C° 0.7 mm 1 mps 668 mmHg 86%
    14:00 +26°C° 0.7 mm 1 mps 668 mmHg 88%
    15:00 +23°C° 0.7 mm 0 mps 668 mmHg 90%
    16:00 +23°C° 0.7 mm 0 mps 667 mmHg 91%
    17:00 +22°C° 0.6 mm 0 mps 668 mmHg 93%
    18:00 +21°C° 0.6 mm 0 mps 668 mmHg 95%
    19:00 +20°C° 0.6 mm 0 mps 668 mmHg 96%
    20:00 +22°C° 0.4 mm 1 mps 669 mmHg 96%
    21:00 +21°C° 0.4 mm 1 mps 669 mmHg 96%
    22:00 +21°C° 0.4 mm 1 mps 670 mmHg 95%
    23:00 +21°C° 0 mm 1 mps 669 mmHg 95%

    Day after tomorrow, 25 November, Monday

    Time Temperature Precipitation Wind Pressure Humidity
    00:00 +20°C° 0 mm 1 mps 669 mmHg 95%
    01:00 +20°C° 0 mm 1 mps 669 mmHg 94%
    02:00 +20°C° 0 mm 1 mps 668 mmHg 94%
    03:00 +20°C° 0 mm 1 mps 668 mmHg 93%
    04:00 +19°C° 0 mm 1 mps 668 mmHg 92%
    05:00 +20°C° 0 mm 1 mps 668 mmHg 90%
    06:00 +21°C° 0 mm 1 mps 669 mmHg 88%
    07:00 +21°C° 0 mm 1 mps 669 mmHg 86%
    08:00 +23°C° 0 mm 1 mps 670 mmHg 79%
    09:00 +26°C° 0 mm 1 mps 670 mmHg 72%
    10:00 +28°C° 0 mm 1 mps 671 mmHg 64%
    11:00 +28°C° 0.6 mm 1 mps 670 mmHg 70%
    12:00 +27°C° 0.6 mm 1 mps 669 mmHg 76%
    13:00 +27°C° 0.6 mm 1 mps 667 mmHg 82%
    14:00 +27°C° 1 mm 1 mps 667 mmHg 84%
    15:00 +26°C° 1 mm 1 mps 667 mmHg 86%
    16:00 +24°C° 1 mm 0 mps 666 mmHg 88%
    17:00 +23°C° 1 mm 0 mps 667 mmHg 91%
    18:00 +24°C° 1 mm 1 mps 667 mmHg 94%
    19:00 +22°C° 1 mm 1 mps 667 mmHg 96%
    20:00 +22°C° 1.5 mm 1 mps 668 mmHg 96%
    21:00 +21°C° 1.5 mm 1 mps 668 mmHg 95%
    22:00 +21°C° 1.5 mm 1 mps 669 mmHg 95%
    23:00 +21°C° 0.4 mm 1 mps 668 mmHg 95%

    26 November, Tuesday

    Time Temperature Precipitation Wind Pressure Humidity
    00:00 +20°C° 0.4 mm 1 mps 668 mmHg 95%
    01:00 +20°C° 0.4 mm 1 mps 668 mmHg 94%
    02:00 +20°C° 0.4 mm 1 mps 668 mmHg 94%
    03:00 +20°C° 0.4 mm 1 mps 668 mmHg 93%
    04:00 +20°C° 0.4 mm 1 mps 668 mmHg 92%
    05:00 +20°C° 0.1 mm 1 mps 668 mmHg 91%
    06:00 +21°C° 0.1 mm 1 mps 669 mmHg 90%
    07:00 +21°C° 0.1 mm 1 mps 669 mmHg 88%
    08:00 +23°C° 0.1 mm 1 mps 670 mmHg 83%
    09:00 +25°C° 0.1 mm 1 mps 670 mmHg 78%
    10:00 +27°C° 0.1 mm 1 mps 671 mmHg 73%
    11:00 +27°C° 0.8 mm 1 mps 670 mmHg 75%
    12:00 +28°C° 0.8 mm 1 mps 669 mmHg 77%
    13:00 +28°C° 0.8 mm 1 mps 668 mmHg 78%
    14:00 +27°C° 1.1 mm 1 mps 668 mmHg 81%
    15:00 +27°C° 1.1 mm 1 mps 667 mmHg 83%
    16:00 +27°C° 1.1 mm 1 mps 667 mmHg 85%
    17:00 +25°C° 0.8 mm 1 mps 667 mmHg 88%
    18:00 +24°C° 0.8 mm 1 mps 668 mmHg 91%
    19:00 +23°C° 0.8 mm 1 mps 668 mmHg 94%
    20:00 +22°C° 1 mm 1 mps 668 mmHg 94%
    21:00 +22°C° 1 mm 1 mps 669 mmHg 93%
    22:00 +20°C° 1 mm 2 mps 669 mmHg 93%
    23:00 +20°C° 0.4 mm 2 mps 669 mmHg 92%

    27 November, Wednesday

    Time Temperature Precipitation Wind Pressure Humidity
    00:00 +20°C° 0.4 mm 2 mps 669 mmHg 90%
    01:00 +19°C° 0.4 mm 2 mps 668 mmHg 89%
    02:00 +19°C° 0 mm 2 mps 668 mmHg 88%
    03:00 +19°C° 0 mm 2 mps 668 mmHg 87%
    04:00 +19°C° 0 mm 2 mps 668 mmHg 86%
    05:00 +20°C° 0 mm 1 mps 669 mmHg 85%
    06:00 +21°C° 0 mm 1 mps 669 mmHg 83%
    07:00 +22°C° 0 mm 1 mps 670 mmHg 81%
    08:00 +24°C° 0 mm 1 mps 670 mmHg 74%
    09:00 +27°C° 0 mm 1 mps 671 mmHg 67%
    10:00 +29°C° 0 mm 1 mps 671 mmHg 60%
    11:00 +29°C° 0.6 mm 1 mps 670 mmHg 63%
    12:00 +29°C° 0.6 mm 1 mps 670 mmHg 66%
    13:00 +29°C° 0.6 mm 1 mps 669 mmHg 70%
    14:00 +29°C° 1 mm 1 mps 668 mmHg 74%
    15:00 +26°C° 1 mm 0 mps 668 mmHg 79%
    16:00 +25°C° 1 mm 0 mps 667 mmHg 84%
    17:00 +25°C° 0.6 mm 1 mps 668 mmHg 87%
    18:00 +24°C° 0.6 mm 1 mps 668 mmHg 89%
    19:00 +22°C° 0.6 mm 1 mps 668 mmHg 92%
    20:00 +22°C° 0.6 mm 1 mps 669 mmHg 92%
    21:00 +20°C° 0.6 mm 2 mps 669 mmHg 91%
    22:00 +20°C° 0.6 mm 2 mps 669 mmHg 91%
    23:00 +20°C° 0.2 mm 2 mps 669 mmHg 89%

    28 November, Thursday

    Time Temperature Precipitation Wind Pressure Humidity
    00:00 +19°C° 0.2 mm 2 mps 669 mmHg 88%
    01:00 +19°C° 0.2 mm 2 mps 668 mmHg 87%
    02:00 +19°C° 0 mm 2 mps 668 mmHg 86%
    03:00 +19°C° 0 mm 2 mps 668 mmHg 85%
    04:00 +19°C° 0 mm 2 mps 668 mmHg 84%
    05:00 +21°C° 0 mm 1 mps 668 mmHg 82%
    06:00 +21°C° 0 mm 1 mps 669 mmHg 80%
    07:00 +22°C° 0 mm 1 mps 670 mmHg 78%
    08:00 +24°C° 0 mm 1 mps 670 mmHg 71%
    09:00 +27°C° 0 mm 1 mps 671 mmHg 64%
    10:00 +29°C° 0 mm 1 mps 671 mmHg 57%
    11:00 +29°C° 0.3 mm 1 mps 670 mmHg 60%
    12:00 +29°C° 0.3 mm 1 mps 669 mmHg 64%
    13:00 +29°C° 0.3 mm 1 mps 668 mmHg 67%
    14:00 +29°C° 0.9 mm 1 mps 668 mmHg 73%
    15:00 +28°C° 0.9 mm 1 mps 667 mmHg 80%
    16:00 +25°C° 0.9 mm 0 mps 667 mmHg 86%
    17:00 +25°C° 0.7 mm 1 mps 667 mmHg 89%
    18:00 +24°C° 0.7 mm 1 mps 668 mmHg 92%
    19:00 +22°C° 0.7 mm 1 mps 668 mmHg 94%
    20:00 +22°C° 0.5 mm 1 mps 668 mmHg 93%
    21:00 +21°C° 0.5 mm 1 mps 669 mmHg 92%
    22:00 +21°C° 0.5 mm 1 mps 669 mmHg 91%
    23:00 +21°C° 0.1 mm 1 mps 669 mmHg 90%
    Show more